GSAT0204 (GALILEO 8) (40545 NORAD) Tracking and Keplerian Element Data

This shows tracking and keplerian element data for the satellite.

Feedback or suggestion? Click here.




ElementValue
Catalog40545
NameGSAT0204 (GALILEO 8)
Epoch Orbit2916
Epoch Day352.21372462
Epoch Year2025
RAAN346.5485
Inclination56.8529
Eccentricity0.0006162
Argument of Perigee265.6138
Mean Anonmoly94.3298
Mean Motion1.70475664
Decay Rate-7.7E-07
L11 40545U 15017B 25352.21372462 -.00000077 00000+0 00000+0 0 9999
L22 40545 56.8529 346.5485 0006162 265.6138 94.3298 1.70475664 29169



Live tracking and technical data element details for GSAT0204 (GALILEO 8) (NORAD 40545). GSAT0204 (GALILEO 8) can be tracked NOW for your location showing map with azimuth and elevation plus other details from your city location.







IsCatalogInMostPopularTable: catalog: 40545, numindb: 822
Update: records affected: 1



GetName: 40545 GSAT0204 (GALILEO 8)

Hit Count: updated at: Thu, 21 May 2026 12:03:10 GMT